彩虹-1 3星 (RADUGA-1 3)

导读

RADUGA 1-3(虹-1 3号)是独联体(CIS)继承自苏联的第二代“虹”系列军用通信卫星,于1994年2月5日发射入轨。它由俄罗斯应用力学科研生产联合体基于“库尔”3号平台研制,属于地球同步轨道通信卫星,配备6路C频段转发器,主要为东半球提供军事通信服务,设计寿命3年,是俄罗斯早期战略卫星通信网络的重要组成部分。

基本信息
目录编号:
22981
目录名称:
RADUGA 1-3
国际标识:
1994-008A
轨道中心:
EARTH
卫星名称:
彩虹-1 3星
卫星全名:
彩虹-1 3星 (RADUGA-1 3)
卫星状态:
在轨 (已飞行11906 天)
发射日期:
1994-02-05 UTC
国别 :
俄罗斯(独联体) (CIS)
星等 :
--
轨道信息
数据来源 国际轨道数据 AOE轨道数据
星历时间 2026-09-11T01:53:13+0800
10小时前
查看轨道信息
2026-09-11T01:00:00+0800
11小时前
查看轨道信息
半长轴 42156.236km 42156.657km
偏心率 0.0002074 0.0001976
轨道倾角 14.136° 14.136°
近地点辐角 233.533° 231.015°
升交点赤经 347.563° 347.566°
平近点角 134.193° 123.356°
近地点 35769.355km 35770.189km
远地点 35786.843km 35786.851km
周期 1435.663分钟 1435.684分钟
每日圈数 1.003021 1.003006
详细信息
平衡模式:
三轴稳定
覆盖范围:
全球
运营商:
俄罗斯国家航天集团
运营商所在国:
俄罗斯
制造商(研发单位):
普里克拉德诺伊·梅哈尼基设计局
制造商所在国:
俄罗斯联邦
使用方式:
暂无
卫星简介
彩虹卫星(Raduga, Gran)是苏联用于军事和通信目的的一系列地球静止通信卫星。彩虹卫星旨在支持军事通信、Orbita地面电视网络,并在整个东半球(极地地区除外)提供电话和电报通信。该卫星已退役。
2D轨道图
3D轨道图
轨道高度分析图
轨道倾角分析图
轨道综合分析图
查看轨道综合分析图
与全量物体交会距离演化趋势
与全量物体交会风险概率演化趋势